HVN651 VVTS-WSSS

Flight info

Callsign HVN651
Flight time N/A
Altitude 35000
Route NIXIV5H NIXIV L643 CN L642 ESPOB/N0455F350 Q801 ESBUM Q802 ELALO ELALO1B
Aircraft A321/M-SDE3FGHIRWY/LB1

Departure

Time N/A
Airport Tan Son Nhat International Airport (VVTS)

Arrival

Time 2026-05-05 21:56
Airport Singapore Changi Airport (WSSS)
Time Latitude Longitude Altitude Speed Heading
2026-05-05 20:52 7.79430 106.04492 34852 ft 460 kts 210°
2026-05-05 20:52 7.76700 106.02805 34852 ft 460 kts 211°
2026-05-05 20:52 7.71273 105.99445 34849 ft 460 kts 211°
2026-05-05 20:53 7.65813 105.96074 34850 ft 460 kts 210°
2026-05-05 20:53 7.60346 105.92704 34851 ft 459 kts 210°
2026-05-05 20:54 7.54895 105.89340 34846 ft 459 kts 211°
2026-05-05 20:54 7.49474 105.85997 34846 ft 459 kts 210°
2026-05-05 20:55 7.44021 105.82636 34845 ft 459 kts 211°
2026-05-05 20:55 7.38573 105.79278 34841 ft 459 kts 211°
2026-05-05 20:56 7.33127 105.75915 34837 ft 459 kts 211°
2026-05-05 20:56 7.27717 105.72573 34834 ft 459 kts 211°
2026-05-05 20:57 7.22265 105.69215 34831 ft 459 kts 211°
2026-05-05 20:57 7.16812 105.65864 34831 ft 459 kts 211°
2026-05-05 20:58 7.11346 105.62496 34829 ft 460 kts 211°
2026-05-05 20:58 7.05915 105.59146 34830 ft 460 kts 211°
2026-05-05 20:59 7.00456 105.55786 34833 ft 460 kts 210°
2026-05-05 20:59 6.94846 105.52672 34835 ft 460 kts 206°
2026-05-05 21:00 6.89086 105.49852 34838 ft 460 kts 205°
2026-05-05 21:00 6.83363 105.47052 34840 ft 460 kts 206°
2026-05-05 21:01 6.77636 105.44163 34834 ft 460 kts 206°
2026-05-05 21:01 6.71936 105.41241 34838 ft 460 kts 206°
2026-05-05 21:02 6.66226 105.38314 34841 ft 460 kts 206°
2026-05-05 21:02 6.60516 105.35407 34840 ft 459 kts 206°
2026-05-05 21:03 6.54844 105.32524 34841 ft 459 kts 206°
2026-05-05 21:03 6.49135 105.29629 34840 ft 459 kts 206°
2026-05-05 21:04 6.43416 105.26729 34840 ft 459 kts 206°
2026-05-05 21:04 6.37720 105.23842 34841 ft 458 kts 206°
2026-05-05 21:05 6.32063 105.20972 34836 ft 458 kts 206°
2026-05-05 21:05 6.26371 105.18072 34831 ft 458 kts 206°
2026-05-05 21:06 6.20677 105.15182 34831 ft 458 kts 206°
2026-05-05 21:06 6.14988 105.12297 34831 ft 458 kts 206°
2026-05-05 21:07 6.09285 105.09407 34833 ft 458 kts 206°
2026-05-05 21:07 6.03589 105.06516 34834 ft 459 kts 206°
2026-05-05 21:08 5.97924 105.03647 34834 ft 458 kts 206°
2026-05-05 21:08 5.92226 105.00757 34835 ft 458 kts 206°
2026-05-05 21:09 5.86539 104.97874 34840 ft 458 kts 206°
2026-05-05 21:09 5.80844 104.94991 34834 ft 458 kts 206°
2026-05-05 21:10 5.75158 104.92113 34838 ft 458 kts 206°
2026-05-05 21:10 5.69472 104.89232 34833 ft 457 kts 206°
2026-05-05 21:11 5.63825 104.86370 34838 ft 457 kts 206°
2026-05-05 21:11 5.58142 104.83494 34834 ft 457 kts 206°
2026-05-05 21:12 5.52464 104.80621 34833 ft 457 kts 206°
2026-05-05 21:12 5.46790 104.77754 34834 ft 457 kts 206°
2026-05-05 21:13 5.41109 104.74879 34832 ft 456 kts 206°
2026-05-05 21:13 5.35470 104.72036 34830 ft 456 kts 206°
2026-05-05 21:14 5.29792 104.69165 34833 ft 456 kts 206°
2026-05-05 21:14 5.24113 104.66285 34833 ft 456 kts 206°
2026-05-05 21:15 5.18447 104.63414 34837 ft 456 kts 206°
2026-05-05 21:15 5.12808 104.60561 34836 ft 456 kts 206°
2026-05-05 21:16 5.07134 104.57696 34836 ft 456 kts 206°
2026-05-05 21:16 5.01457 104.54833 34836 ft 456 kts 206°
2026-05-05 21:17 4.95822 104.51982 34839 ft 456 kts 206°
2026-05-05 21:17 4.90098 104.49216 34838 ft 455 kts 199°
2026-05-05 21:18 4.83923 104.48053 34838 ft 453 kts 179°
2026-05-05 21:18 4.77695 104.48671 34838 ft 452 kts 172°
2026-05-05 21:19 4.71440 104.49471 34835 ft 452 kts 172°
2026-05-05 21:19 4.65182 104.50247 34835 ft 452 kts 172°
2026-05-05 21:20 4.58971 104.51020 34834 ft 452 kts 172°
2026-05-05 21:20 4.52725 104.51811 34838 ft 452 kts 172°
2026-05-05 21:21 4.46484 104.52603 34835 ft 452 kts 172°
2026-05-05 21:21 4.40238 104.53390 34833 ft 451 kts 172°
2026-05-05 21:22 4.34004 104.54175 34831 ft 451 kts 172°
2026-05-05 21:22 4.27811 104.54954 34827 ft 451 kts 172°
2026-05-05 21:23 4.21580 104.55742 34825 ft 451 kts 172°
2026-05-05 21:23 4.15344 104.56438 34816 ft 451 kts 174°
2026-05-05 21:24 4.10150 104.56922 34822 ft 451 kts 174°
2026-05-05 21:24 4.03880 104.57497 34819 ft 451 kts 174°
2026-05-05 21:25 3.97654 104.58094 34821 ft 451 kts 174°
2026-05-05 21:25 3.91399 104.58708 34821 ft 451 kts 174°
2026-05-05 21:26 3.85141 104.59327 34823 ft 452 kts 174°
2026-05-05 21:26 3.78878 104.59939 34825 ft 452 kts 174°
2026-05-05 21:27 3.72644 104.60547 34829 ft 452 kts 174°
2026-05-05 21:27 3.66362 104.61161 34831 ft 452 kts 174°
2026-05-05 21:28 3.60134 104.61770 34835 ft 452 kts 174°
2026-05-05 21:28 3.53871 104.62385 34835 ft 452 kts 173°
2026-05-05 21:29 3.47638 104.63004 34837 ft 452 kts 173°
2026-05-05 21:29 3.41382 104.63621 34837 ft 452 kts 174°
2026-05-05 21:30 3.35126 104.64231 34836 ft 451 kts 174°
2026-05-05 21:30 3.28867 104.64840 34838 ft 451 kts 174°
2026-05-05 21:31 3.22619 104.65452 34838 ft 451 kts 174°
2026-05-05 21:31 3.16359 104.66071 34838 ft 451 kts 174°
2026-05-05 21:32 3.10122 104.66611 34779 ft 452 kts 180°
2026-05-05 21:32 3.06996 104.66315 34544 ft 452 kts 191°
2026-05-05 21:32 3.03986 104.65413 34153 ft 450 kts 202°
2026-05-05 21:33 3.01219 104.63939 33527 ft 451 kts 214°
2026-05-05 21:33 2.98835 104.61972 32941 ft 450 kts 225°
2026-05-05 21:33 2.96695 104.59681 32333 ft 449 kts 226°
2026-05-05 21:33 2.94573 104.57400 31732 ft 448 kts 226°
2026-05-05 21:34 2.92439 104.55123 31127 ft 448 kts 226°
2026-05-05 21:34 2.90303 104.52852 30523 ft 448 kts 226°
2026-05-05 21:34 2.88170 104.50583 29917 ft 448 kts 226°
2026-05-05 21:34 2.86040 104.48316 29270 ft 446 kts 226°
2026-05-05 21:35 2.83940 104.46077 28699 ft 443 kts 226°
2026-05-05 21:35 2.81834 104.43828 28108 ft 441 kts 226°
2026-05-05 21:35 2.79741 104.41589 27538 ft 439 kts 226°
2026-05-05 21:35 2.77662 104.39368 26962 ft 437 kts 226°
2026-05-05 21:36 2.75588 104.37157 26391 ft 434 kts 226°
2026-05-05 21:36 2.73525 104.34956 25842 ft 432 kts 226°
2026-05-05 21:36 2.71471 104.32766 25299 ft 430 kts 226°
2026-05-05 21:36 2.69434 104.30592 24770 ft 427 kts 226°
2026-05-05 21:37 2.67410 104.28431 24244 ft 424 kts 226°
2026-05-05 21:37 2.65396 104.26275 23741 ft 422 kts 226°
2026-05-05 21:37 2.63424 104.24164 23216 ft 419 kts 226°
2026-05-05 21:37 2.61433 104.22036 22696 ft 414 kts 226°
2026-05-05 21:38 2.59475 104.19946 22201 ft 409 kts 226°
2026-05-05 21:38 2.57536 104.17875 21729 ft 404 kts 226°
2026-05-05 21:38 2.55624 104.15833 21255 ft 400 kts 226°
2026-05-05 21:38 2.53742 104.13831 21062 ft 388 kts 225°
2026-05-05 21:39 2.51700 104.12144 20937 ft 373 kts 211°
2026-05-05 21:39 2.49422 104.11044 20708 ft 362 kts 197°
2026-05-05 21:39 2.46980 104.10515 20246 ft 359 kts 182°
2026-05-05 21:39 2.44502 104.10486 19779 ft 357 kts 178°
2026-05-05 21:40 2.42036 104.10501 19464 ft 351 kts 178°
2026-05-05 21:40 2.39593 104.10509 19063 ft 349 kts 178°
2026-05-05 21:40 2.37168 104.10509 18677 ft 347 kts 178°
2026-05-05 21:40 2.34782 104.10507 18307 ft 345 kts 178°
2026-05-05 21:41 2.32386 104.10504 17906 ft 343 kts 178°
2026-05-05 21:41 2.30006 104.10501 17493 ft 341 kts 178°
2026-05-05 21:41 2.27638 104.10500 17081 ft 338 kts 178°
2026-05-05 21:41 2.25289 104.10501 16686 ft 336 kts 178°
2026-05-05 21:42 2.22953 104.10499 16296 ft 334 kts 178°
2026-05-05 21:42 2.20641 104.10499 15913 ft 332 kts 178°
2026-05-05 21:42 2.18364 104.10499 15539 ft 330 kts 178°
2026-05-05 21:42 2.16078 104.10499 15167 ft 328 kts 178°
2026-05-05 21:43 2.13804 104.10500 14800 ft 326 kts 178°
2026-05-05 21:43 2.11543 104.10500 14441 ft 324 kts 178°
2026-05-05 21:43 2.09294 104.10500 14083 ft 322 kts 178°
2026-05-05 21:43 2.07057 104.10499 13736 ft 320 kts 178°
2026-05-05 21:44 2.04834 104.10500 13360 ft 318 kts 178°
2026-05-05 21:44 2.02639 104.10501 13137 ft 310 kts 178°
2026-05-05 21:44 2.00506 104.10501 13014 ft 300 kts 178°
2026-05-05 21:44 1.98477 104.10498 12884 ft 290 kts 178°
2026-05-05 21:45 1.96490 104.10499 12727 ft 281 kts 178°
2026-05-05 21:45 1.94546 104.10507 12447 ft 278 kts 178°
2026-05-05 21:45 1.92621 104.10519 12132 ft 276 kts 178°
2026-05-05 21:45 1.90703 104.10529 11814 ft 274 kts 178°
2026-05-05 21:46 1.88797 104.10539 11490 ft 273 kts 178°
2026-05-05 21:46 1.86905 104.10549 11171 ft 271 kts 178°
2026-05-05 21:46 1.85023 104.10560 10858 ft 269 kts 179°
2026-05-05 21:46 1.83151 104.10569 10541 ft 268 kts 179°
2026-05-05 21:47 1.81294 104.10576 10225 ft 266 kts 179°
2026-05-05 21:47 1.79467 104.10583 9918 ft 265 kts 179°
2026-05-05 21:47 1.77625 104.10591 9587 ft 263 kts 179°
2026-05-05 21:47 1.75797 104.10597 9235 ft 262 kts 179°
2026-05-05 21:48 1.73979 104.10602 8884 ft 260 kts 179°
2026-05-05 21:48 1.72191 104.10609 8540 ft 259 kts 179°
2026-05-05 21:48 1.70384 104.10617 8201 ft 258 kts 179°
2026-05-05 21:48 1.68592 104.10625 7864 ft 257 kts 179°
2026-05-05 21:49 1.66801 104.10634 7415 ft 258 kts 179°
2026-05-05 21:49 1.65004 104.10645 6770 ft 257 kts 179°
2026-05-05 21:49 1.63253 104.10489 6130 ft 254 kts 198°
2026-05-05 21:49 1.61747 104.09612 5474 ft 251 kts 224°
2026-05-05 21:50 1.60492 104.08404 4850 ft 253 kts 214°
2026-05-05 21:50 1.58888 104.07590 4280 ft 262 kts 199°
2026-05-05 21:50 1.57167 104.07075 3977 ft 249 kts 198°
2026-05-05 21:50 1.55628 104.06504 3684 ft 229 kts 202°
2026-05-05 21:51 1.54214 104.05908 3420 ft 213 kts 203°
2026-05-05 21:51 1.52920 104.05358 3152 ft 192 kts 202°
2026-05-05 21:51 1.51737 104.04857 2912 ft 177 kts 202°
2026-05-05 21:51 1.50660 104.04402 2707 ft 158 kts 202°
2026-05-05 21:52 1.48748 104.03594 2321 ft 144 kts 202°
2026-05-05 21:52 1.47831 104.03208 2131 ft 142 kts 202°
2026-05-05 21:52 1.46936 104.02829 1951 ft 141 kts 202°
2026-05-05 21:53 1.46032 104.02448 1771 ft 141 kts 202°
2026-05-05 21:53 1.45132 104.02068 1588 ft 140 kts 202°
2026-05-05 21:53 1.44233 104.01688 1404 ft 140 kts 202°
2026-05-05 21:53 1.43336 104.01309 1225 ft 140 kts 202°
2026-05-05 21:54 1.42438 104.00930 1042 ft 140 kts 202°
2026-05-05 21:54 1.41542 104.00552 870 ft 139 kts 202°
2026-05-05 21:54 1.40647 104.00174 704 ft 140 kts 202°
2026-05-05 21:54 1.39752 103.99796 519 ft 140 kts 202°
2026-05-05 21:55 1.38857 103.99418 333 ft 140 kts 203°
2026-05-05 21:55 1.37961 103.99040 152 ft 140 kts 203°
2026-05-05 21:55 1.37079 103.98668 32 ft 130 kts 203°
2026-05-05 21:55 1.36429 103.98393 31 ft 74 kts 202°
2026-05-05 21:56 1.36072 103.98241 31 ft 47 kts 203°
2026-05-05 21:56 1.35861 103.98154 32 ft 8 kts 200°
2026-05-05 21:56 1.35795 103.98131 32 ft 15 kts 199°
2026-05-05 21:56 1.35646 103.98106 34 ft 28 kts 185°
2026-05-05 21:57 1.35410 103.98135 32 ft 34 kts 171°
2026-05-05 21:57 1.35319 103.98155 33 ft 10 kts 160°
2026-05-05 21:57 1.35278 103.98201 33 ft 9 kts 109°
2026-05-05 21:57 1.35259 103.98262 33 ft 9 kts 106°
2026-05-05 21:58 1.35237 103.98321 33 ft 9 kts 115°
2026-05-05 21:58 1.35218 103.98363 33 ft 1 kts 113°
2026-05-05 21:58 1.35216 103.98368 33 ft 1 kts 113°
2026-05-05 21:58 1.35213 103.98376 31 ft 1 kts 112°
2026-05-05 21:59 1.35211 103.98381 32 ft 0 kts 112°